GW4301 Weather Reports


time (UTC)temp
C
wind
direction
speed
KPH
gust
KPH
rain 1hr
cm
rain 24hr
cm
rain mn
cm
humidity
%
barometer
mb
20260508023036 15 0 0.0 1.6 0.00 0.00 0.00 10 1018.9
20260508021535 15 0 0.0 0.0 0.00 0.00 0.00 10 1018.8
20260508020038 16 0 0.0 0.0 0.00 0.00 0.00 10 1018.8
20260508014536 16 0 0.0 0.0 0.00 0.00 0.00 11 1018.6
20260508013037 17 0 0.0 4.8 0.00 0.00 0.00 9 1018.6
20260508011540 17 0 0.0 11.3 0.00 0.00 0.00 10 1018.4
20260508010036 17 0 0.0 4.8 0.00 0.00 0.00 10 1018.5
20260508004538 18 0 0.0 4.8 0.00 0.00 0.00 11 1018.4
20260508003034 19 0 0.0 0.0 0.00 0.00 0.00 10 1018.5
20260508001540 19 0 0.0 0.0 0.00 0.00 0.00 10 1018.6
20260508000040 18 0 0.0 11.3 0.00 0.00 0.00 13 1018.6
20260507234542 20 0 0.0 9.7 0.00 0.00 0.00 14 1018.6
20260507233035 19 0 0.0 0.0 0.00 0.00 0.00 14 1018.6
20260507231543 20 0 0.0 9.7 0.00 0.00 0.00 14 1018.7
20260507230034 21 0 0.0 9.7 0.00 0.00 0.00 14 1018.7
20260507224540 21 0 0.0 9.7 0.00 0.00 0.00 14 1018.8
20260507223035 21 0 0.0 0.0 0.00 0.00 0.00 13 1018.8
20260507221537 22 101 0.0 0.0 0.00 0.00 0.00 13 1019.1
20260507220036 22 0 0.0 9.7 0.00 0.00 0.00 11 1019.2
20260507214536 22 0 0.0 0.0 0.00 0.00 0.00 11 1019.4
20260507213047 21 0 0.0 12.9 0.00 0.00 0.00 12 1019.6
20260507211539 20 0 0.0 9.7 0.00 0.00 0.00 10 1019.9
20260507210038 21 0 0.0 9.7 0.00 0.00 0.00 8 1019.9
20260507204533 20 0 0.0 11.3 0.00 0.00 0.00 9 1020.0
20260507203036 20 0 0.0 12.9 0.00 0.00 0.00 7 1020.3
20260507201541 19 0 0.0 11.3 0.00 0.00 0.00 8 1020.5
20260507200037 19 0 0.0 11.3 0.00 0.00 0.00 7 1020.7
20260507194536 18 0 0.0 9.7 0.00 0.00 0.00 10 1020.9
20260507193042 18 0 0.0 11.3 0.00 0.00 0.00 10 1021.0
20260507191535 18 0 0.0 9.7 0.00 0.00 0.00 12 1021.1
20260507190040 18 0 0.0 4.8 0.00 0.00 0.00 17 1021.3
20260507184535 17 101 0.0 12.9 0.00 0.00 0.00 17 1021.4
20260507183042 16 0 0.0 6.4 0.00 0.00 0.00 19 1021.5
20260507181536 16 101 0.0 4.8 0.00 0.00 0.00 22 1021.8
20260507180044 15 0 0.0 4.8 0.00 0.00 0.00 23 1021.8
20260507174538 15 101 0.0 6.4 0.00 0.00 0.00 27 1022.0
20260507173043 13 0 0.0 9.7 0.00 0.00 0.00 33 1022.1
20260507171545 13 0 0.0 6.4 0.00 0.00 0.00 37 1022.2
20260507170038 11 0 0.0 14.5 0.00 0.00 0.00 40 1022.3
20260507164535 10 0 0.0 9.7 0.00 0.00 0.00 44 1022.4
20260507163043 10 0 0.0 6.4 0.00 0.00 0.00 49 1022.4
20260507161543 8 0 0.0 4.8 0.00 0.00 0.00 53 1022.5
20260507160044 8 0 0.0 4.8 0.00 0.00 0.00 56 1022.8
20260507154537 7 0 0.0 11.3 0.00 0.00 0.00 59 1023.0
20260507153038 6 0 0.0 1.6 0.00 0.00 0.00 60 1023.0
20260507151537 6 0 0.0 0.0 0.00 0.00 0.00 64 1023.1
20260507150035 5 0 0.0 0.0 0.00 0.00 0.00 69 1023.0
20260507144552 3 0 0.0 0.0 0.00 0.00 0.00 71 1023.2
20260507143036 3 0 0.0 0.0 0.00 0.00 0.00 75 1023.4
20260507141543 2 0 0.0 0.0 0.00 0.00 0.00 79 1023.5
20260507140039 1 0 0.0 0.0 0.00 0.00 0.00 88 1023.7
20260507134535 0 0 0.0 0.0 0.00 0.00 0.00 89 1023.6
20260507133037 0 0 0.0 0.0 0.00 0.00 0.00 89 1023.5
20260507131536 0 0 0.0 0.0 0.00 0.00 0.00 88 1023.5
20260507130041 -1 0 0.0 0.0 0.00 0.00 0.00 88 1023.6
20260507124538 -1 0 0.0 0.0 0.00 0.00 0.00 88 1023.4
20260507123035 -1 0 0.0 0.0 0.00 0.00 0.00 87 1023.4
20260507121535 -1 0 0.0 0.0 0.00 0.00 0.00 87 1023.5
20260507120034 -1 0 0.0 0.0 0.00 0.00 0.00 87 1023.6
20260507114540 -1 0 0.0 0.0 0.00 0.00 0.00 86 1023.5
20260507113036 -1 0 0.0 0.0 0.00 0.00 0.00 85 1023.5
20260507111542 -1 0 0.0 0.0 0.00 0.00 0.00 84 1023.4
20260507110035 -1 0 0.0 0.0 0.00 0.00 0.00 84 1023.5
20260507104535 -1 0 0.0 0.0 0.00 0.03 0.00 83 1023.5
20260507103041 -1 0 0.0 0.0 0.00 0.03 0.00 82 1023.5
20260507101546 0 0 0.0 0.0 0.00 0.03 0.00 79 1023.5
20260507100043 0 0 0.0 0.0 0.00 0.03 0.00 79 1023.6
20260507094543 0 0 0.0 0.0 0.00 0.03 0.00 79 1023.6
20260507093042 0 0 0.0 0.0 0.00 0.03 0.00 77 1023.6
20260507091540 0 0 0.0 0.0 0.00 0.03 0.00 76 1023.6
20260507090038 0 0 0.0 0.0 0.00 0.03 0.00 76 1023.6
20260507084538 0 0 0.0 0.0 0.00 0.03 0.00 74 1023.4
20260507083036 0 0 0.0 0.0 0.00 0.03 0.00 70 1023.4
20260507081535 0 0 0.0 0.0 0.00 0.03 0.00 68 1023.2
20260507080039 1 0 0.0 0.0 0.00 0.03 0.00 65 1023.3
20260507074535 1 0 0.0 0.0 0.00 0.03 0.00 62 1023.3
20260507073035 1 0 0.0 0.0 0.00 0.03 0.00 62 1023.1
20260507071536 1 0 0.0 0.0 0.00 0.03 0.00 64 1022.8
20260507070035 1 0 0.0 0.0 0.00 0.03 0.00 63 1022.9
20260507064534 1 0 0.0 0.0 0.00 0.03 0.00 60 1022.8
20260507063047 2 0 0.0 0.0 0.00 0.03 0.00 57 1022.5
20260507061541 2 0 0.0 0.0 0.00 0.03 0.00 56 1022.4
20260507060047 2 0 0.0 0.0 0.00 0.03 0.00 59 1022.3
20260507054545 2 0 0.0 0.0 0.00 0.05 0.03 60 1022.2
20260507053037 3 0 0.0 0.0 0.00 0.05 0.03 55 1022.1
20260507051536 3 0 0.0 0.0 0.00 0.05 0.03 56 1022.0
20260507050042 3 0 0.0 0.0 0.00 0.05 0.03 58 1022.1
20260507044552 3 0 0.0 0.0 0.00 0.08 0.03 59 1021.9
20260507043036 4 0 0.0 0.0 0.00 0.08 0.03 59 1021.8
20260507041535 4 0 0.0 0.0 0.00 0.08 0.03 57 1021.5
20260507040036 4 0 0.0 0.0 0.00 0.08 0.03 56 1021.3
20260507034544 5 0 0.0 0.0 0.00 0.13 0.03 54 1021.3
20260507033036 5 0 0.0 0.0 0.00 0.13 0.03 55 1021.3
20260507031534 6 0 0.0 0.0 0.00 0.13 0.03 51 1020.8
20260507030035 6 0 0.0 0.0 0.00 0.13 0.03 48 1020.5
20260507024543 7 0 0.0 0.0 0.00 0.23 0.03 46 1020.2